CZ-6A DEB, 54968

Orbit data source: Space-Track

CZ-6A DEB, 54968 is space debris in SSO originally from a launch on Fri, 11 Nov 2022 UTC launched from the Taiyaun Space Center, China (TSC). Debris objects in space refer to the collection of defunct objects orbiting the Earth. Examples of debris include non-operational satellites, rocket bodies, and fragments generated from explosions, collisions, or faulty payload assembly.

Loading next visibility...
Identifier
54968, 2022-151TH
Orbit
SSO
Country
Flag of CNCN / PRC
Related business
Manufacturer
SAST
Mission
Spacecraft
Bus & Motor
Unknown
Mass
Unknown
Launch date (UTC)
2022-11-11 (3 years ago)
Launch vehicle
Unknown
Launch site
Taiyaun Space Center, China (TSC)
Object type
Payload
Rocket body
Debris
Shape & HBR
Unknown shape, 0.1 m
Radar Cross Section
Small (<0.1 m²)

Expand to show TLE details & history
Last TLE update: 14 hours ago

TLE from 14 hours ago
0 CZ-6A DEB
1 54968U 22151TH  25353.11207943  .00011957  00000-0  20039-2 0  9997
2 54968  98.6448  45.4249 0077224 126.2755 234.5615 14.67936241163853
Epoch: 2025-12-19T02:41Z
TLE epoch observation values (Epoch: 2025-12-19T02:41:23.662Z)
Latitude
0.00002°
Longitude
-82.88161°
Altitude
702.479 km
Speed
7.488 km/s
True Right ascension
03h 01m 41s
True Declination
0° 00' 00"
Sunlit
Object was in full shadow at epoch
Visualization orbit readout
Latitude
Unknown
Longitude
Unknown
Altitude
Unknown
Speed
Unknown
Apparent Right ascension
Unknown
Apparent Declination
Unknown
Sunlit
N/A
Visualization observer readout
Local Sidereal Time
15:11:48
Azimuth
Unknown
Elevation
Unknown
Doppler factor
Unknown
Orbital elements
Apogee altitude
719.144 km
Perigee altitude
610.367 km
Semi-major axis
7,042.893 km
Eccentricity
0.00772
Inclination
98.6448°
RAAN
45.4249°
Arg. of periapsis
126.2755°
True anomaly
233.84455°
Mean anomaly
234.5615°
Eccentric anomaly
234.20262°
Mean motion
3.67212 °/min
Orbital period
98.04 mins
BSTAR
0.0020039
Loading maneuver chart data...
Computing Atmospheric mass density...
Loading historical data...
Loading historical data...
Loading historical data...
Loading historical data...
Loading historical data...
Loading historical data...
Loading historical data...

Documentation

Showing up to 5 results
|